Tracking 20748 objects as of 4-Jun-2020
HD Live streaming from Space Station
objects crossing your sky now
Track the most recent launched group of Starlink satellites

SL-12 R/B(2)

Track SL-12 R/B(2) now!


NORAD ID: 20502
Int'l Code: 1990-016D
Perigee: 35,713.1 km
Apogee: 36,015.4 km
Inclination: 14.6 °
Period: 1,439.7 minutes
Semi major axis: 42235 km
RCS: 3.9952 m2 (large)
Launch date: February 15, 1990
Source: Commonwealth of Independent States (former USSR) (CIS)
Launch site: TYURATAM MISSILE AND SPACE COMPLEX (TTMTR)

Note: This is a ROCKET BODY
aabbcc
Your satellite tracking list
Your tracking list is empty




NASA's NSSDC Master Catalog

Two Line Element Set (TLE):
1 20502U 90016D   20155.70823215 +.00000105 +00000-0 +00000-0 0  9992
2 20502 014.5764 352.5330 0035780 182.4133 009.4015 01.00020767110716
Source of the keplerian elements: AFSPC